| time (UTC) | temp C | wind direction | speed KPH | gust KPH | rain 1hr cm | rain 24hr cm | rain mn cm | humidity % | barometer mb |
| 20260507230118 | 13 | 29 | 6.4 | 8.0 | 0.00 | 0.00 | 0.00 | 87 | 1011.8 |
| 20260507225627 | 13 | 12 | 8.0 | 11.3 | 0.00 | 0.00 | 0.00 | 87 | 1011.9 |
| 20260507225118 | 13 | 22 | 8.0 | 9.7 | 0.00 | 0.00 | 0.00 | 88 | 1011.9 |
| 20260507224618 | 13 | 35 | 6.4 | 8.0 | 0.00 | 0.00 | 0.00 | 88 | 1011.9 |
| 20260507224118 | 13 | 36 | 6.4 | 9.7 | 0.00 | 0.00 | 0.00 | 88 | 1012.0 |
| 20260507223621 | 13 | 38 | 4.8 | 11.3 | 0.00 | 0.00 | 0.00 | 88 | 1012.0 |
| 20260507223118 | 13 | 46 | 6.4 | 9.7 | 0.00 | 0.00 | 0.00 | 89 | 1012.0 |
| 20260507222621 | 13 | 42 | 6.4 | 11.3 | 0.00 | 0.00 | 0.00 | 90 | 1012.1 |
| 20260507222118 | 13 | 57 | 9.7 | 11.3 | 0.00 | 0.00 | 0.00 | 90 | 1012.0 |
| 20260507221618 | 13 | 65 | 9.7 | 12.9 | 0.00 | 0.00 | 0.00 | 89 | 1012.0 |
| 20260507221124 | 13 | 42 | 6.4 | 9.7 | 0.00 | 0.00 | 0.00 | 89 | 1012.1 |
| 20260507220618 | 13 | 49 | 4.8 | 12.9 | 0.00 | 0.00 | 0.00 | 89 | 1012.1 |
| 20260507220121 | 13 | 67 | 3.2 | 12.9 | 0.00 | 0.00 | 0.00 | 89 | 1011.9 |
| 20260507215618 | 13 | 50 | 8.0 | 11.3 | 0.00 | 0.00 | 0.00 | 90 | 1011.9 |
| 20260507215121 | 13 | 43 | 6.4 | 12.9 | 0.00 | 0.00 | 0.00 | 90 | 1011.9 |
| 20260507214618 | 13 | 49 | 11.3 | 12.9 | 0.00 | 0.00 | 0.00 | 89 | 1011.9 |
| 20260507214119 | 13 | 32 | 9.7 | 12.9 | 0.00 | 0.00 | 0.00 | 89 | 1011.9 |
| 20260507213618 | 13 | 88 | 8.0 | 14.5 | 0.00 | 0.00 | 0.00 | 89 | 1011.8 |
| 20260507213118 | 13 | 70 | 9.7 | 11.3 | 0.00 | 0.00 | 0.00 | 90 | 1011.7 |
| 20260507212618 | 13 | 67 | 6.4 | 12.9 | 0.00 | 0.00 | 0.00 | 90 | 1011.5 |
| 20260507212121 | 13 | 80 | 11.3 | 12.9 | 0.00 | 0.00 | 0.00 | 89 | 1011.6 |
| 20260507211624 | 13 | 57 | 6.4 | 11.3 | 0.00 | 0.00 | 0.00 | 89 | 1011.6 |
| 20260507211121 | 13 | 51 | 6.4 | 11.3 | 0.00 | 0.00 | 0.00 | 90 | 1011.6 |
| 20260507210621 | 13 | 56 | 6.4 | 9.7 | 0.00 | 0.00 | 0.00 | 89 | 1011.7 |
| 20260507210118 | 13 | 68 | 8.0 | 9.7 | 0.00 | 0.00 | 0.00 | 89 | 1011.7 |
| 20260507205618 | 13 | 45 | 4.8 | 12.9 | 0.00 | 0.00 | 0.00 | 89 | 1011.7 |
| 20260507205119 | 13 | 72 | 8.0 | 12.9 | 0.00 | 0.00 | 0.00 | 90 | 1011.7 |
| 20260507204618 | 13 | 44 | 6.4 | 8.0 | 0.00 | 0.00 | 0.00 | 90 | 1011.7 |
| 20260507204124 | 13 | 52 | 8.0 | 8.0 | 0.00 | 0.00 | 0.00 | 90 | 1011.7 |
| 20260507203621 | 14 | 44 | 4.8 | 8.0 | 0.00 | 0.00 | 0.00 | 89 | 1011.7 |
| 20260507203119 | 14 | 65 | 4.8 | 4.8 | 0.00 | 0.00 | 0.00 | 89 | 1011.7 |
| 20260507202621 | 14 | 17 | 3.2 | 6.4 | 0.00 | 0.00 | 0.00 | 89 | 1011.7 |
| 20260507202118 | 14 | 49 | 3.2 | 4.8 | 0.00 | 0.00 | 0.00 | 89 | 1011.6 |
| 20260507201619 | 14 | 62 | 3.2 | 8.0 | 0.00 | 0.00 | 0.00 | 89 | 1011.6 |
| 20260507201118 | 14 | 71 | 6.4 | 8.0 | 0.00 | 0.00 | 0.00 | 89 | 1011.5 |
| 20260507200618 | 14 | 71 | 4.8 | 6.4 | 0.00 | 0.00 | 0.00 | 89 | 1011.4 |
| 20260507200118 | 15 | 58 | 4.8 | 4.8 | 0.00 | 0.00 | 0.00 | 89 | 1011.4 |
| 20260507195618 | 15 | 56 | 1.6 | 4.8 | 0.00 | 0.00 | 0.00 | 89 | 1011.4 |
| 20260507195121 | 15 | 61 | 3.2 | 3.2 | 0.00 | 0.00 | 0.00 | 89 | 1011.3 |
| 20260507194621 | 15 | 49 | 3.2 | 4.8 | 0.00 | 0.00 | 0.00 | 89 | 1011.3 |
| 20260507194121 | 15 | 43 | 3.2 | 4.8 | 0.00 | 0.00 | 0.00 | 89 | 1011.3 |
| 20260507193621 | 15 | 37 | 3.2 | 6.4 | 0.00 | 0.00 | 0.00 | 89 | 1011.2 |
| 20260507193118 | 15 | 50 | 4.8 | 6.4 | 0.00 | 0.00 | 0.00 | 89 | 1011.2 |
| 20260507192621 | 15 | 51 | 3.2 | 4.8 | 0.00 | 0.00 | 0.00 | 88 | 1011.2 |
| 20260507192119 | 15 | 38 | 3.2 | 4.8 | 0.00 | 0.00 | 0.00 | 88 | 1011.2 |
| 20260507191619 | 15 | 56 | 1.6 | 4.8 | 0.00 | 0.00 | 0.00 | 88 | 1011.2 |
| 20260507191118 | 15 | 18 | 3.2 | 4.8 | 0.00 | 0.00 | 0.00 | 87 | 1011.2 |
| 20260507190618 | 16 | 75 | 1.6 | 6.4 | 0.00 | 0.00 | 0.00 | 86 | 1011.2 |
| 20260507190119 | 16 | 0 | 4.8 | 4.8 | 0.00 | 0.00 | 0.00 | 86 | 1011.1 |
| 20260507185618 | 16 | 49 | 3.2 | 4.8 | 0.00 | 0.00 | 0.00 | 85 | 1011.1 |
| 20260507185121 | 16 | 65 | 1.6 | 4.8 | 0.00 | 0.00 | 0.00 | 85 | 1011.1 |
| 20260507184618 | 16 | 50 | 1.6 | 4.8 | 0.00 | 0.00 | 0.00 | 84 | 1011.1 |
| 20260507184118 | 16 | 60 | 3.2 | 4.8 | 0.00 | 0.00 | 0.00 | 84 | 1011.1 |
| 20260507183618 | 16 | 62 | 4.8 | 4.8 | 0.00 | 0.00 | 0.00 | 83 | 1011.1 |
| 20260507183118 | 17 | 24 | 1.6 | 3.2 | 0.00 | 0.00 | 0.00 | 83 | 1011.1 |
| 20260507182618 | 17 | 23 | 1.6 | 3.2 | 0.00 | 0.00 | 0.00 | 83 | 1011.1 |
| 20260507182118 | 17 | 13 | 3.2 | 3.2 | 0.00 | 0.00 | 0.00 | 83 | 1011.2 |
| 20260507181621 | 17 | 13 | 3.2 | 4.8 | 0.00 | 0.00 | 0.00 | 82 | 1011.2 |
| 20260507181118 | 17 | 22 | 1.6 | 4.8 | 0.00 | 0.00 | 0.00 | 82 | 1011.2 |
| 20260507180618 | 17 | 47 | 1.6 | 4.8 | 0.00 | 0.00 | 0.00 | 82 | 1011.0 |
| 20260507180121 | 17 | 15 | 1.6 | 3.2 | 0.00 | 0.00 | 0.00 | 82 | 1011.0 |
| 20260507175624 | 17 | 17 | 1.6 | 4.8 | 0.00 | 0.00 | 0.00 | 82 | 1011.0 |
| 20260507175118 | 17 | 30 | 1.6 | 8.0 | 0.00 | 0.00 | 0.00 | 81 | 1011.1 |
| 20260507174621 | 17 | 17 | 1.6 | 4.8 | 0.00 | 0.00 | 0.00 | 81 | 1011.1 |
| 20260507174118 | 17 | 123 | 1.6 | 4.8 | 0.00 | 0.00 | 0.00 | 81 | 1011.1 |
| 20260507173618 | 17 | 5 | 3.2 | 6.4 | 0.00 | 0.00 | 0.00 | 82 | 1011.1 |
| 20260507173118 | 17 | 355 | 1.6 | 4.8 | 0.00 | 0.00 | 0.00 | 81 | 1011.1 |
| 20260507172619 | 17 | 13 | 3.2 | 6.4 | 0.00 | 0.00 | 0.00 | 81 | 1011.0 |
| 20260507172118 | 17 | 42 | 3.2 | 11.3 | 0.00 | 0.00 | 0.00 | 81 | 1011.0 |
| 20260507171619 | 18 | 104 | 3.2 | 11.3 | 0.00 | 0.00 | 0.00 | 80 | 1011.0 |
| 20260507171121 | 18 | 305 | 3.2 | 8.0 | 0.00 | 0.00 | 0.00 | 80 | 1011.2 |
| 20260507170618 | 18 | 288 | 3.2 | 9.7 | 0.00 | 0.00 | 0.00 | 81 | 1011.2 |
| 20260507170121 | 18 | 264 | 6.4 | 8.0 | 0.00 | 0.00 | 0.00 | 81 | 1011.1 |
| 20260507165621 | 18 | 14 | 1.6 | 8.0 | 0.00 | 0.00 | 0.00 | 80 | 1011.0 |
| 20260507165124 | 18 | 73 | 4.8 | 8.0 | 0.00 | 0.00 | 0.00 | 80 | 1010.9 |
| 20260507164619 | 18 | 78 | 3.2 | 11.3 | 0.00 | 0.00 | 0.00 | 79 | 1010.9 |
| 20260507164118 | 18 | 0 | 3.2 | 11.3 | 0.00 | 0.00 | 0.00 | 79 | 1010.8 |
| 20260507163618 | 18 | 72 | 4.8 | 9.7 | 0.00 | 0.00 | 0.00 | 77 | 1010.8 |
| 20260507163118 | 19 | 97 | 3.2 | 11.3 | 0.00 | 0.00 | 0.00 | 77 | 1010.8 |
| 20260507162618 | 19 | 316 | 3.2 | 9.7 | 0.00 | 0.00 | 0.00 | 78 | 1010.9 |
| 20260507162127 | 18 | 263 | 4.8 | 8.0 | 0.00 | 0.00 | 0.00 | 78 | 1010.8 |
| 20260507161624 | 19 | 59 | 3.2 | 11.3 | 0.00 | 0.00 | 0.00 | 76 | 1010.9 |
| 20260507161118 | 19 | 49 | 4.8 | 9.7 | 0.00 | 0.00 | 0.00 | 78 | 1010.9 |
| 20260507160618 | 19 | 309 | 3.2 | 11.3 | 0.00 | 0.00 | 0.00 | 78 | 1010.8 |
| 20260507160118 | 19 | 11 | 4.8 | 6.4 | 0.00 | 0.00 | 0.00 | 78 | 1010.7 |
| 20260507155621 | 19 | 238 | 3.2 | 11.3 | 0.00 | 0.00 | 0.00 | 78 | 1010.7 |
| 20260507155121 | 19 | 90 | 0.0 | 12.9 | 0.00 | 0.00 | 0.00 | 77 | 1010.7 |
| 20260507154618 | 19 | 94 | 1.6 | 9.7 | 0.00 | 0.00 | 0.00 | 76 | 1010.6 |
| 20260507154118 | 20 | 106 | 6.4 | 9.7 | 0.00 | 0.00 | 0.00 | 75 | 1010.7 |
| 20260507153621 | 20 | 10 | 1.6 | 8.0 | 0.00 | 0.00 | 0.00 | 76 | 1010.8 |
| 20260507153118 | 19 | 325 | 6.4 | 11.3 | 0.00 | 0.00 | 0.00 | 75 | 1010.8 |
| 20260507152618 | 19 | 180 | 3.2 | 14.5 | 0.00 | 0.00 | 0.00 | 76 | 1010.7 |
| 20260507152121 | 18 | 126 | 4.8 | 9.7 | 0.00 | 0.00 | 0.00 | 76 | 1010.8 |
| 20260507151618 | 18 | 262 | 3.2 | 11.3 | 0.00 | 0.00 | 0.00 | 77 | 1010.7 |
| 20260507151121 | 19 | 19 | 4.8 | 11.3 | 0.00 | 0.00 | 0.00 | 76 | 1010.8 |
| 20260507150618 | 18 | 49 | 1.6 | 16.1 | 0.00 | 0.00 | 0.00 | 76 | 1010.9 |
| 20260507150124 | 19 | 31 | 4.8 | 16.1 | 0.00 | 0.00 | 0.00 | 75 | 1010.9 |
| 20260507145621 | 19 | 200 | 1.6 | 9.7 | 0.00 | 0.00 | 0.00 | 75 | 1010.9 |
| 20260507145121 | 19 | 224 | 1.6 | 9.7 | 0.00 | 0.00 | 0.00 | 77 | 1010.8 |
| 20260507144618 | 19 | 336 | 4.8 | 12.9 | 0.00 | 0.00 | 0.00 | 77 | 1010.9 |
| 20260507144124 | 19 | 250 | 6.4 | 9.7 | 0.00 | 0.00 | 0.00 | 77 | 1010.7 |
| 20260507143618 | 18 | 175 | 4.8 | 14.5 | 0.00 | 0.00 | 0.00 | 76 | 1010.7 |
| 20260507143121 | 18 | 88 | 3.2 | 14.5 | 0.00 | 0.00 | 0.00 | 75 | 1010.9 |
| 20260507142618 | 19 | 170 | 3.2 | 16.1 | 0.00 | 0.00 | 0.00 | 74 | 1010.9 |
| 20260507142119 | 19 | 333 | 3.2 | 11.3 | 0.00 | 0.00 | 0.00 | 74 | 1010.9 |
| 20260507141619 | 19 | 34 | 9.7 | 16.1 | 0.00 | 0.00 | 0.00 | 74 | 1011.0 |
| 20260507141118 | 19 | 305 | 11.3 | 14.5 | 0.00 | 0.00 | 0.00 | 74 | 1011.0 |
| 20260507140618 | 20 | 17 | 4.8 | 12.9 | 0.00 | 0.00 | 0.00 | 74 | 1011.0 |
| 20260507140124 | 20 | 250 | 3.2 | 14.5 | 0.00 | 0.00 | 0.00 | 74 | 1011.0 |
| 20260507135624 | 20 | 38 | 6.4 | 12.9 | 0.00 | 0.00 | 0.00 | 75 | 1011.0 |
| 20260507135118 | 20 | 329 | 1.6 | 11.3 | 0.00 | 0.00 | 0.00 | 75 | 1011.1 |
| 20260507134621 | 19 | 63 | 4.8 | 12.9 | 0.00 | 0.00 | 0.00 | 76 | 1011.1 |
| 20260507134124 | 19 | 5 | 8.0 | 16.1 | 0.00 | 0.00 | 0.00 | 76 | 1011.1 |
| 20260507133621 | 19 | 121 | 1.6 | 17.7 | 0.00 | 0.00 | 0.00 | 75 | 1011.1 |
| 20260507133118 | 19 | 290 | 6.4 | 12.9 | 0.00 | 0.00 | 0.00 | 75 | 1011.2 |
| 20260507132624 | 19 | 337 | 3.2 | 12.9 | 0.00 | 0.00 | 0.00 | 75 | 1011.2 |
| 20260507132118 | 19 | 17 | 0.0 | 14.5 | 0.00 | 0.00 | 0.00 | 75 | 1011.2 |
| 20260507131619 | 19 | 213 | 4.8 | 12.9 | 0.00 | 0.00 | 0.00 | 76 | 1011.2 |
| 20260507131118 | 19 | 98 | 3.2 | 11.3 | 0.00 | 0.00 | 0.00 | 76 | 1011.2 |
| 20260507130621 | 19 | 9 | 6.4 | 14.5 | 0.00 | 0.00 | 0.00 | 75 | 1011.2 |
| 20260507130118 | 19 | 344 | 6.4 | 14.5 | 0.00 | 0.00 | 0.00 | 76 | 1011.0 |
| 20260507125622 | 19 | 33 | 6.4 | 16.1 | 0.00 | 0.00 | 0.00 | 75 | 1011.0 |
| 20260507125118 | 19 | 66 | 3.2 | 16.1 | 0.00 | 0.00 | 0.00 | 76 | 1011.0 |
| 20260507124621 | 19 | 46 | 6.4 | 17.7 | 0.00 | 0.00 | 0.00 | 75 | 1011.1 |
| 20260507124118 | 18 | 46 | 0.0 | 14.5 | 0.00 | 0.00 | 0.00 | 75 | 1011.0 |
| 20260507123624 | 18 | 219 | 4.8 | 16.1 | 0.00 | 0.00 | 0.00 | 75 | 1011.0 |
| 20260507123121 | 18 | 5 | 8.0 | 20.9 | 0.00 | 0.00 | 0.00 | 74 | 1011.0 |
| 20260507122624 | 19 | 78 | 11.3 | 16.1 | 0.00 | 0.00 | 0.00 | 74 | 1010.9 |
| 20260507122127 | 19 | 199 | 3.2 | 20.9 | 0.00 | 0.00 | 0.00 | 75 | 1010.9 |
| 20260507121624 | 19 | 70 | 12.9 | 20.9 | 0.00 | 0.00 | 0.00 | 74 | 1010.8 |
| 20260507121118 | 19 | 227 | 3.2 | 17.7 | 0.00 | 0.00 | 0.00 | 74 | 1010.9 |
| 20260507120618 | 19 | 249 | 4.8 | 19.3 | 0.00 | 0.00 | 0.00 | 74 | 1010.8 |
| 20260507120121 | 19 | 35 | 16.1 | 19.3 | 0.00 | 0.00 | 0.00 | 74 | 1010.9 |
| 20260507115627 | 19 | 28 | 3.2 | 14.5 | 0.00 | 0.00 | 0.00 | 73 | 1010.9 |
| 20260507115118 | 19 | 355 | 6.4 | 14.5 | 0.00 | 0.00 | 0.00 | 73 | 1011.0 |
| 20260507114628 | 19 | 272 | 9.7 | 14.5 | 0.00 | 0.00 | 0.00 | 73 | 1010.9 |
| 20260507114121 | 19 | 321 | 6.4 | 14.5 | 0.00 | 0.00 | 0.00 | 72 | 1011.1 |
| 20260507113624 | 20 | 15 | 4.8 | 17.7 | 0.00 | 0.00 | 0.00 | 72 | 1011.2 |
| 20260507113124 | 20 | 349 | 8.0 | 12.9 | 0.00 | 0.00 | 0.00 | 70 | 1011.3 |
| 20260507112618 | 20 | 219 | 3.2 | 9.7 | 0.00 | 0.00 | 0.00 | 71 | 1011.2 |
| 20260507112118 | 20 | 13 | 3.2 | 11.3 | 0.00 | 0.00 | 0.00 | 70 | 1011.2 |
| 20260507111624 | 20 | 321 | 4.8 | 11.3 | 0.00 | 0.00 | 0.00 | 70 | 1011.2 |
| 20260507111121 | 20 | 309 | 1.6 | 14.5 | 0.00 | 0.00 | 0.00 | 71 | 1011.2 |
| 20260507110618 | 20 | 97 | 3.2 | 14.5 | 0.00 | 0.00 | 0.00 | 71 | 1011.3 |
| 20260507110118 | 20 | 239 | 4.8 | 12.9 | 0.00 | 0.00 | 0.00 | 72 | 1011.3 |
| 20260507105618 | 20 | 134 | 3.2 | 14.5 | 0.00 | 0.00 | 0.00 | 71 | 1011.3 |
| 20260507105118 | 20 | 317 | 3.2 | 16.1 | 0.00 | 0.00 | 0.00 | 72 | 1011.3 |
| 20260507104621 | 20 | 258 | 6.4 | 12.9 | 0.00 | 0.00 | 0.00 | 72 | 1011.3 |
| 20260507104124 | 19 | 255 | 4.8 | 9.7 | 0.00 | 0.00 | 0.00 | 74 | 1011.3 |
| 20260507103621 | 18 | 242 | 4.8 | 14.5 | 0.00 | 0.00 | 0.00 | 75 | 1011.4 |
| 20260507103121 | 18 | 227 | 6.4 | 12.9 | 0.00 | 0.00 | 0.00 | 75 | 1011.4 |
| 20260507102624 | 18 | 315 | 1.6 | 12.9 | 0.00 | 0.00 | 0.00 | 75 | 1011.4 |
| 20260507102121 | 18 | 80 | 4.8 | 14.5 | 0.00 | 0.00 | 0.00 | 76 | 1011.5 |
| 20260507101618 | 18 | 72 | 0.0 | 9.7 | 0.00 | 0.00 | 0.00 | 77 | 1011.4 |
| 20260507101121 | 18 | 136 | 4.8 | 14.5 | 0.00 | 0.00 | 0.00 | 78 | 1011.3 |
| 20260507100621 | 17 | 321 | 6.4 | 12.9 | 0.00 | 0.00 | 0.00 | 78 | 1011.4 |
| 20260507100121 | 17 | 213 | 4.8 | 9.7 | 0.00 | 0.00 | 0.00 | 82 | 1011.4 |
| 20260507095621 | 16 | 76 | 0.0 | 6.4 | 0.00 | 0.00 | 0.00 | 84 | 1011.4 |
| 20260507095118 | 16 | 87 | 3.2 | 4.8 | 0.00 | 0.00 | 0.00 | 84 | 1011.4 |
| 20260507094618 | 16 | 65 | 4.8 | 8.0 | 0.00 | 0.00 | 0.00 | 84 | 1011.4 |
| 20260507094118 | 16 | 38 | 3.2 | 6.4 | 0.00 | 0.00 | 0.00 | 85 | 1011.5 |
| 20260507093618 | 16 | 22 | 4.8 | 8.0 | 0.00 | 0.00 | 0.00 | 84 | 1011.5 |
| 20260507093118 | 16 | 59 | 4.8 | 8.0 | 0.00 | 0.00 | 0.00 | 83 | 1011.4 |
| 20260507092621 | 16 | 67 | 6.4 | 8.0 | 0.00 | 0.00 | 0.00 | 82 | 1011.4 |
| 20260507092118 | 17 | 60 | 3.2 | 8.0 | 0.00 | 0.00 | 0.00 | 80 | 1011.3 |
| 20260507091618 | 17 | 37 | 4.8 | 6.4 | 0.00 | 0.00 | 0.00 | 78 | 1011.3 |
| 20260507091118 | 17 | 32 | 1.6 | 12.9 | 0.00 | 0.00 | 0.00 | 77 | 1011.2 |
| 20260507090618 | 18 | 59 | 6.4 | 14.5 | 0.00 | 0.00 | 0.00 | 75 | 1011.2 |
| 20260507090119 | 18 | 144 | 4.8 | 14.5 | 0.00 | 0.00 | 0.00 | 75 | 1011.2 |
| 20260507085618 | 18 | 206 | 8.0 | 14.5 | 0.00 | 0.00 | 0.00 | 75 | 1011.1 |
| 20260507085118 | 18 | 187 | 1.6 | 11.3 | 0.00 | 0.00 | 0.00 | 76 | 1011.0 |
| 20260507084627 | 18 | 24 | 1.6 | 14.5 | 0.00 | 0.00 | 0.00 | 77 | 1011.0 |
| 20260507084118 | 18 | 40 | 11.3 | 14.5 | 0.00 | 0.00 | 0.00 | 77 | 1010.9 |
| 20260507083621 | 18 | 341 | 8.0 | 14.5 | 0.00 | 0.00 | 0.00 | 79 | 1010.7 |
| 20260507083121 | 18 | 296 | 8.0 | 14.5 | 0.00 | 0.00 | 0.00 | 79 | 1010.6 |
| 20260507082618 | 18 | 311 | 3.2 | 14.5 | 0.00 | 0.00 | 0.00 | 79 | 1010.7 |
| 20260507082118 | 18 | 335 | 9.7 | 14.5 | 0.00 | 0.00 | 0.00 | 79 | 1010.7 |
| 20260507081618 | 18 | 346 | 4.8 | 14.5 | 0.00 | 0.00 | 0.00 | 79 | 1010.7 |
| 20260507081118 | 18 | 294 | 6.4 | 11.3 | 0.00 | 0.00 | 0.00 | 79 | 1010.6 |
| 20260507080621 | 18 | 321 | 4.8 | 16.1 | 0.00 | 0.00 | 0.00 | 78 | 1010.6 |
| 20260507080118 | 18 | 284 | 3.2 | 11.3 | 0.00 | 0.00 | 0.00 | 78 | 1010.5 |
| 20260507075618 | 18 | 256 | 3.2 | 9.7 | 0.00 | 0.00 | 0.00 | 77 | 1010.5 |
| 20260507075118 | 18 | 327 | 3.2 | 9.7 | 0.00 | 0.00 | 0.00 | 78 | 1010.4 |
| 20260507074621 | 18 | 19 | 1.6 | 9.7 | 0.00 | 0.00 | 0.00 | 78 | 1010.5 |
| 20260507074118 | 18 | 62 | 3.2 | 9.7 | 0.00 | 0.00 | 0.00 | 78 | 1010.4 |
| 20260507073618 | 18 | 346 | 6.4 | 12.9 | 0.00 | 0.00 | 0.00 | 77 | 1010.4 |
| 20260507073124 | 18 | 336 | 4.8 | 9.7 | 0.00 | 0.00 | 0.00 | 77 | 1010.4 |
| 20260507072621 | 18 | 286 | 3.2 | 9.7 | 0.00 | 0.00 | 0.00 | 77 | 1010.5 |
| 20260507072121 | 18 | 319 | 8.0 | 12.9 | 0.00 | 0.00 | 0.00 | 78 | 1010.3 |
| 20260507071621 | 18 | 317 | 4.8 | 8.0 | 0.00 | 0.00 | 0.00 | 77 | 1010.4 |
| 20260507071118 | 18 | 317 | 3.2 | 12.9 | 0.00 | 0.00 | 0.00 | 77 | 1010.3 |
| 20260507070618 | 18 | 205 | 6.4 | 6.4 | 0.00 | 0.00 | 0.00 | 77 | 1010.3 |
| 20260507070124 | 18 | 12 | 1.6 | 9.7 | 0.00 | 0.00 | 0.00 | 78 | 1010.2 |
| 20260507065618 | 18 | 355 | 1.6 | 11.3 | 0.00 | 0.00 | 0.00 | 78 | 1010.1 |
| 20260507065121 | 18 | 275 | 6.4 | 9.7 | 0.00 | 0.00 | 0.00 | 79 | 1010.1 |
| 20260507064618 | 17 | 198 | 1.6 | 11.3 | 0.00 | 0.00 | 0.00 | 79 | 1010.0 |
| 20260507064121 | 17 | 0 | 8.0 | 9.7 | 0.00 | 0.00 | 0.00 | 79 | 1010.0 |
| 20260507063621 | 17 | 336 | 8.0 | 8.0 | 0.00 | 0.00 | 0.00 | 79 | 1010.0 |
| 20260507063118 | 17 | 315 | 4.8 | 12.9 | 0.00 | 0.00 | 0.00 | 80 | 1009.9 |
| 20260507062619 | 17 | 343 | 6.4 | 9.7 | 0.00 | 0.00 | 0.00 | 79 | 1010.0 |
| 20260507062124 | 17 | 228 | 3.2 | 8.0 | 0.00 | 0.00 | 0.00 | 79 | 1009.9 |
| 20260507061624 | 17 | 29 | 1.6 | 11.3 | 0.00 | 0.00 | 0.00 | 79 | 1009.9 |
| 20260507061118 | 17 | 0 | 3.2 | 8.0 | 0.00 | 0.00 | 0.00 | 80 | 1009.8 |
| 20260507060618 | 17 | 327 | 4.8 | 6.4 | 0.00 | 0.00 | 0.00 | 80 | 1009.7 |
| 20260507060118 | 17 | 339 | 3.2 | 6.4 | 0.00 | 0.00 | 0.00 | 80 | 1009.8 |
| 20260507055618 | 17 | 340 | 4.8 | 9.7 | 0.00 | 0.05 | 0.00 | 80 | 1009.7 |
| 20260507055127 | 17 | 0 | 1.6 | 12.9 | 0.00 | 0.08 | 0.00 | 80 | 1009.7 |
| 20260507054621 | 17 | 300 | 8.0 | 11.3 | 0.00 | 0.10 | 0.00 | 80 | 1009.7 |
| 20260507054118 | 17 | 301 | 1.6 | 9.7 | 0.00 | 0.13 | 0.00 | 81 | 1009.7 |
| 20260507053618 | 17 | 273 | 3.2 | 9.7 | 0.00 | 0.18 | 0.00 | 81 | 1009.6 |
| 20260507053121 | 16 | 24 | 4.8 | 6.4 | 0.00 | 0.28 | 0.00 | 82 | 1009.5 |
| 20260507052618 | 16 | 74 | 3.2 | 11.3 | 0.00 | 0.28 | 0.00 | 82 | 1009.4 |
| 20260507052118 | 16 | 5 | 1.6 | 6.4 | 0.00 | 0.30 | 0.00 | 83 | 1009.4 |
| 20260507051621 | 16 | 0 | 1.6 | 6.4 | 0.00 | 0.36 | 0.00 | 83 | 1009.3 |
| 20260507051125 | 16 | 5 | 3.2 | 8.0 | 0.00 | 0.41 | 0.00 | 83 | 1009.2 |
| 20260507050621 | 16 | 345 | 3.2 | 6.4 | 0.00 | 0.46 | 0.00 | 84 | 1009.2 |
| 20260507050124 | 16 | 5 | 1.6 | 4.8 | 0.00 | 0.46 | 0.00 | 85 | 1009.1 |
| 20260507045618 | 16 | 338 | 4.8 | 4.8 | 0.00 | 0.46 | 0.00 | 85 | 1009.0 |
| 20260507045121 | 16 | 46 | 1.6 | 3.2 | 0.00 | 0.46 | 0.00 | 85 | 1009.1 |
| 20260507044618 | 16 | 48 | 0.0 | 4.8 | 0.00 | 0.46 | 0.00 | 85 | 1009.0 |
| 20260507044118 | 16 | 37 | 0.0 | 4.8 | 0.00 | 0.46 | 0.00 | 85 | 1009.0 |
| 20260507043618 | 16 | 51 | 0.0 | 3.2 | 0.00 | 0.46 | 0.00 | 85 | 1009.0 |
| 20260507043118 | 16 | 62 | 3.2 | 4.8 | 0.00 | 0.46 | 0.00 | 85 | 1009.0 |
| 20260507042618 | 16 | 25 | 1.6 | 3.2 | 0.00 | 0.46 | 0.00 | 85 | 1008.9 |
| 20260507042118 | 16 | 0 | 1.6 | 4.8 | 0.00 | 0.46 | 0.00 | 85 | 1008.9 |
| 20260507041618 | 16 | 52 | 3.2 | 4.8 | 0.00 | 0.46 | 0.00 | 86 | 1008.9 |
| 20260507041118 | 16 | 51 | 0.0 | 3.2 | 0.00 | 0.46 | 0.00 | 86 | 1008.9 |
| 20260507040618 | 16 | 51 | 0.0 | 4.8 | 0.00 | 0.46 | 0.00 | 86 | 1008.8 |
| 20260507040124 | 16 | 74 | 3.2 | 6.4 | 0.00 | 0.46 | 0.00 | 86 | 1008.8 |
| 20260507035618 | 16 | 48 | 4.8 | 4.8 | 0.00 | 0.46 | 0.00 | 86 | 1008.9 |
| 20260507035118 | 16 | 40 | 3.2 | 4.8 | 0.00 | 0.46 | 0.00 | 86 | 1008.9 |
| 20260507034624 | 16 | 40 | 0.0 | 6.4 | 0.00 | 0.46 | 0.00 | 86 | 1008.8 |
| 20260507034118 | 16 | 23 | 0.0 | 4.8 | 0.00 | 0.46 | 0.00 | 86 | 1008.8 |
| 20260507033618 | 16 | 346 | 1.6 | 4.8 | 0.00 | 0.46 | 0.00 | 86 | 1008.7 |
| 20260507033121 | 16 | 334 | 1.6 | 4.8 | 0.00 | 0.46 | 0.00 | 86 | 1008.6 |
| 20260507032624 | 16 | 29 | 3.2 | 4.8 | 0.00 | 0.46 | 0.00 | 86 | 1008.6 |
| 20260507032118 | 16 | 45 | 3.2 | 8.0 | 0.00 | 0.46 | 0.00 | 85 | 1008.6 |
| 20260507031618 | 16 | 57 | 6.4 | 6.4 | 0.00 | 0.46 | 0.00 | 85 | 1008.6 |
| 20260507031121 | 16 | 67 | 1.6 | 4.8 | 0.00 | 0.46 | 0.00 | 86 | 1008.7 |
| 20260507030618 | 16 | 66 | 3.2 | 6.4 | 0.00 | 0.46 | 0.00 | 86 | 1008.8 |
| 20260507030118 | 16 | 26 | 1.6 | 6.4 | 0.00 | 0.46 | 0.00 | 86 | 1008.8 |
| 20260507025621 | 16 | 38 | 6.4 | 6.4 | 0.00 | 0.46 | 0.00 | 86 | 1008.8 |
| 20260507025121 | 16 | 38 | 1.6 | 4.8 | 0.00 | 0.46 | 0.00 | 87 | 1008.7 |
| 20260507024619 | 16 | 61 | 0.0 | 4.8 | 0.00 | 0.46 | 0.00 | 87 | 1008.7 |
| 20260507024118 | 16 | 28 | 1.6 | 1.6 | 0.00 | 0.46 | 0.00 | 87 | 1008.7 |
| 20260507023618 | 16 | 28 | 1.6 | 4.8 | 0.00 | 0.46 | 0.00 | 87 | 1008.7 |
| 20260507023124 | 16 | 54 | 3.2 | 4.8 | 0.00 | 0.46 | 0.00 | 87 | 1008.7 |
| 20260507022621 | 16 | 74 | 3.2 | 9.7 | 0.00 | 0.46 | 0.00 | 86 | 1008.7 |
| 20260507022121 | 16 | 24 | 8.0 | 8.0 | 0.00 | 0.46 | 0.00 | 88 | 1008.7 |
| 20260507021618 | 16 | 50 | 1.6 | 3.2 | 0.00 | 0.46 | 0.00 | 88 | 1008.6 |
| 20260507021118 | 16 | 50 | 3.2 | 6.4 | 0.00 | 0.48 | 0.00 | 87 | 1008.6 |
| 20260507020618 | 16 | 42 | 3.2 | 6.4 | 0.00 | 0.48 | 0.00 | 87 | 1008.7 |
| 20260507020118 | 16 | 62 | 1.6 | 4.8 | 0.00 | 0.48 | 0.00 | 87 | 1008.6 |
| 20260507015618 | 16 | 27 | 0.0 | 4.8 | 0.00 | 0.51 | 0.00 | 87 | 1008.6 |
| 20260507015121 | 16 | 21 | 1.6 | 3.2 | 0.00 | 0.51 | 0.00 | 88 | 1008.5 |
| 20260507014618 | 16 | 21 | 1.6 | 3.2 | 0.00 | 0.53 | 0.00 | 88 | 1008.4 |
| 20260507014121 | 16 | 21 | 3.2 | 4.8 | 0.00 | 0.53 | 0.00 | 88 | 1008.4 |
| 20260507013618 | 16 | 61 | 3.2 | 8.0 | 0.00 | 0.56 | 0.00 | 88 | 1008.4 |
| 20260507013121 | 16 | 73 | 1.6 | 3.2 | 0.00 | 0.61 | 0.00 | 88 | 1008.4 |
| 20260507012624 | 16 | 27 | 1.6 | 4.8 | 0.00 | 0.69 | 0.00 | 87 | 1008.4 |
| 20260507012118 | 16 | 34 | 3.2 | 3.2 | 0.00 | 0.71 | 0.00 | 87 | 1008.5 |
| 20260507011621 | 16 | 21 | 1.6 | 3.2 | 0.00 | 0.74 | 0.00 | 87 | 1008.5 |
| 20260507011118 | 16 | 21 | 1.6 | 3.2 | 0.00 | 0.76 | 0.00 | 87 | 1008.5 |
| 20260507010618 | 16 | 32 | 0.0 | 3.2 | 0.00 | 0.76 | 0.00 | 87 | 1008.6 |
| 20260507010127 | 16 | 33 | 3.2 | 3.2 | 0.00 | 0.76 | 0.00 | 87 | 1008.6 |
| 20260507005618 | 16 | 33 | 0.0 | 3.2 | 0.00 | 0.79 | 0.00 | 87 | 1008.7 |
| 20260507005121 | 16 | 25 | 1.6 | 1.6 | 0.00 | 0.84 | 0.00 | 87 | 1008.7 |
| 20260507004621 | 16 | 25 | 1.6 | 4.8 | 0.00 | 0.86 | 0.00 | 86 | 1008.7 |
| 20260507004124 | 16 | 74 | 1.6 | 3.2 | 0.00 | 0.91 | 0.00 | 86 | 1008.7 |
| 20260507003624 | 16 | 5 | 0.0 | 3.2 | 0.00 | 0.91 | 0.00 | 86 | 1008.7 |
| 20260507003118 | 16 | 5 | 3.2 | 4.8 | 0.00 | 0.94 | 0.00 | 86 | 1008.6 |
| 20260507002624 | 16 | 12 | 1.6 | 3.2 | 0.00 | 0.94 | 0.00 | 86 | 1008.6 |
| 20260507002121 | 17 | 23 | 1.6 | 4.8 | 0.00 | 0.97 | 0.00 | 86 | 1008.6 |
| 20260507001618 | 17 | 347 | 3.2 | 3.2 | 0.00 | 0.97 | 0.00 | 86 | 1008.6 |
| 20260507001118 | 17 | 44 | 0.0 | 4.8 | 0.00 | 0.99 | 0.00 | 86 | 1008.6 |
| 20260507000621 | 17 | 305 | 3.2 | 4.8 | 0.00 | 0.99 | 0.00 | 86 | 1008.6 |
| 20260507000124 | 17 | 266 | 1.6 | 6.4 | 0.00 | 0.99 | 0.00 | 86 | 1008.5 |
| 20260506235621 | 17 | 287 | 3.2 | 4.8 | 0.00 | 0.99 | 0.00 | 85 | 1008.6 |
| 20260506235121 | 16 | 311 | 3.2 | 4.8 | 0.00 | 0.99 | 0.00 | 85 | 1008.6 |
| 20260506234621 | 16 | 345 | 3.2 | 4.8 | 0.00 | 0.99 | 0.00 | 85 | 1008.6 |
| 20260506234121 | 17 | 252 | 3.2 | 4.8 | 0.00 | 0.99 | 0.00 | 85 | 1008.6 |
| 20260506233621 | 17 | 295 | 4.8 | 4.8 | 0.00 | 0.99 | 0.00 | 85 | 1008.7 |
| 20260506233121 | 17 | 321 | 0.0 | 4.8 | 0.00 | 0.99 | 0.00 | 85 | 1008.7 |
| 20260506232621 | 17 | 272 | 0.0 | 6.4 | 0.00 | 0.99 | 0.00 | 85 | 1008.7 |
| 20260506232118 | 17 | 238 | 6.4 | 11.3 | 0.00 | 0.99 | 0.00 | 85 | 1008.7 |
| 20260506231627 | 17 | 235 | 3.2 | 9.7 | 0.00 | 0.99 | 0.00 | 85 | 1008.8 |
| 20260506231121 | 17 | 219 | 3.2 | 6.4 | 0.00 | 0.99 | 0.00 | 85 | 1008.7 |
| 20260506230618 | 17 | 252 | 3.2 | 6.4 | 0.00 | 0.99 | 0.00 | 85 | 1008.8 |